[[{"header":{"parameterUnit":"m.s-1","parameterCategory":1,"la1":30.2991,"la2":30.254,"lo1":-89.0895,"lo2":-89.0444,"dy":0.0017,"dx":0.0017,"nx":28,"ny":28,"refTime":"2024-02-05T09:00:00:Z","depth":0,"parameterNumber":2,"parameterNumberName":"U-component_of_WINDS"},"data":[0,0,0,0,0,0,0,0,0,0,0,0,0,0,0,0,0,0,0,0,0,0,0,0,0,0,0,0,0,0,0,0,0,0,0,0,0,0,0,0,0,0,0,0,0,0,0,0,0,0,0,0,0,0,0,0,0,0,1.7972,1.7971,0,1.7916,1.7916,1.7915,1.7853,1.7852,1.7852,1.7851,1.7792,1.7791,1.779,0,0,0,0,0,0,0,0,0,0,0,0,0,1.8024,1.8024,1.7972,1.7971,1.7971,1.7916,1.7916,1.7915,1.7853,1.7852,1.7851,1.785,1.7792,1.7791,1.779,0,0,0,0,0,0,0,0,0,0,0,0,0,1.7988,1.8023,1.7972,1.7933,1.7929,1.7917,1.7916,1.7915,1.7854,1.7852,1.7851,1.785,1.7792,1.7791,1.779,1.781,0,0,1.7787,1.7786,0,0,0,0,0,0,0,0,1.799,1.7986,1.794,1.7936,1.7932,1.789,1.7912,1.788,1.7854,1.7882,1.7851,1.7849,1.7826,1.7822,1.7814,1.7808,1.7805,1.7787,1.7786,1.7786,1.7785,0,0,0,0,0,0,0,1.7993,1.7989,1.795,1.7939,1.7934,1.7919,1.7912,1.7906,1.7862,1.788,1.7875,1.787,1.7823,1.7815,1.7812,1.7804,1.7787,1.7786,1.7785,1.7785,1.7812,1.7813,0,0,0,0,0,0,1.8002,1.7991,1.7952,1.7948,1.7958,1.7919,1.7911,1.7905,1.7862,1.7854,1.7871,1.7867,1.7818,1.7814,1.781,1.7831,1.7786,1.7785,1.7784,1.7811,1.7812,1.7814,0,0,0,0,0,0,1.8003,1.7999,1.7954,1.7968,1.7961,1.7919,1.7913,1.7905,1.7897,1.7855,1.7847,1.7871,1.7817,1.7812,1.7811,1.7828,1.7784,1.7783,1.7809,1.7811,1.7813,1.7873,0,0,0,0,0,0,1.8005,1.7999,1.8007,1.7969,1.7961,1.7956,1.7914,1.7904,1.7895,1.789,1.7853,1.7846,1.7815,1.7813,1.781,1.7826,1.7782,1.7807,1.781,1.7812,1.7869,1.7877,1.7883,0,0,0,0,0,1.8007,1.8025,1.8007,1.8003,1.7969,1.7957,1.7953,1.7917,1.7897,1.7904,1.7877,1.7847,1.7827,1.7813,1.7809,1.7825,1.7806,1.7809,1.7812,1.7866,1.7875,1.7883,0,0,0,0,0,0,1.8065,1.802,1.7999,1.8006,1.7986,1.7947,1.7954,1.7928,1.7913,1.7908,1.7865,1.7857,1.7862,1.7843,1.7829,1.7843,1.7812,1.7815,1.7855,1.7863,1.787,1.7874,1.7781,0,0,0,0,0,1.8079,1.8073,1.8034,1.8044,1.8035,1.7997,1.799,1.7965,1.7942,1.7933,1.7907,1.7885,1.7874,1.7868,1.7855,1.7867,1.7858,1.7876,1.7883,1.7889,1.7891,1.7897,1.7904,1.7824,1.7824,1.7824,0,0,1.8107,1.8082,1.808,1.8055,1.8036,1.8032,1.799,1.7986,1.7982,1.7932,1.793,1.7911,1.7884,1.789,1.7891,1.7875,1.7912,1.7893,1.7898,1.7897,1.7901,1.7908,1.7915,1.7826,1.7826,1.7826,0,0,1.8156,1.8136,1.8142,1.8125,1.8098,1.8073,1.8075,1.804,1.8025,1.8023,1.7986,1.798,1.7962,1.7944,1.7933,1.7978,1.7949,1.7975,1.8011,1.8017,1.8023,1.8028,1.8044,1.805,1.7977,1.7978,1.7978,0,1.8194,1.8185,1.8149,1.8148,1.8138,1.8094,1.81,1.8085,1.8055,1.8049,1.8032,1.8008,1.7987,1.7989,1.8,1.7992,1.7993,1.7978,1.8025,1.803,1.8035,1.8049,1.8055,1.7981,1.798,1.798,1.798,0,1.8233,1.8228,1.8237,1.821,1.8201,1.8204,1.8168,1.8163,1.8139,1.8116,1.8114,1.8088,1.807,1.8068,1.8045,1.8067,1.8058,1.8033,1.8001,1.8046,1.8059,1.8064,1.7985,1.7984,1.7983,1.7983,0,0,1.8316,1.827,1.8274,1.8262,1.823,1.8225,1.8226,1.8209,1.8206,1.8187,1.8187,1.8173,1.8151,1.8138,1.8112,1.8118,1.8155,1.8092,1.8091,1.8105,1.8178,1.8196,1.8203,1.8136,1.8137,1.8138,1.818,0,1.8358,1.8358,1.8326,1.8334,1.8329,1.8288,1.8289,1.827,1.8248,1.8241,1.8217,1.8208,1.8179,1.8172,1.8175,1.815,1.8169,1.8146,1.8135,1.8135,1.8142,1.821,1.8229,1.827,1.8185,1.8186,1.8186,0,1.8407,1.8393,1.8401,1.837,1.8366,1.8368,1.835,1.8344,1.8321,1.8305,1.8292,1.8264,1.8262,1.8233,1.8231,1.8216,1.821,1.8197,1.8198,1.8195,1.8163,1.8208,1.8282,1.8288,1.8194,1.8193,1.8193,0,1.8467,1.8449,1.8452,1.8443,1.8406,1.8408,1.8393,1.8369,1.8361,1.8346,1.834,1.8325,1.8317,1.8305,1.8273,1.8255,1.8275,1.8243,1.8261,1.8262,1.8266,1.8266,1.8339,1.8263,1.8263,1.8263,1.8263,0,1.8517,1.8524,1.8478,1.848,1.8486,1.8449,1.8457,1.8437,1.8417,1.8414,1.8378,1.8376,1.8334,1.8327,1.8302,1.8304,1.83,1.8287,1.8281,1.829,1.8292,1.8285,1.8281,1.8265,1.8264,1.8264,1.8264,0,1.8584,1.8553,1.8554,1.852,1.8512,1.8518,1.8488,1.8489,1.8466,1.8463,1.846,1.8424,1.8414,1.8382,1.8364,1.8347,1.8357,1.8344,1.8365,1.836,1.838,1.8379,1.8451,1.8459,1.8379,1.8379,1.838,0,1.8617,1.8622,1.8589,1.8585,1.8572,1.8565,1.8558,1.8522,1.8516,1.8491,1.8494,1.8482,1.847,1.8457,1.8429,1.8415,1.8402,1.8428,1.8399,1.8409,1.8402,1.8402,1.8402,1.8434,1.8435,1.8436,1.8436,0,1.8681,1.8666,1.8657,1.8643,1.8635,1.8622,1.8606,1.8605,1.8566,1.856,1.855,1.8542,1.8524,1.8512,1.8495,1.8478,1.8451,1.8446,1.845,1.8459,1.8471,1.8465,1.8381,1.8444,1.8443,1.8443,1.8442,1.8442,1.8732,1.8734,1.8712,1.8702,1.8688,1.8675,1.8673,1.8651,1.8643,1.8626,1.8606,1.8599,1.8577,1.855,1.8537,1.853,1.8515,1.852,1.8522,1.8523,1.8528,1.8473,1.8527,1.8527,1.8527,1.8526,1.8526,0,1.8793,1.8777,1.8769,1.875,1.8743,1.8719,1.8701,1.8697,1.8692,1.8674,1.8664,1.8653,1.8642,1.8614,1.86,1.8601,1.8588,1.8598,1.8597,1.8594,1.8542,1.8541,1.8609,1.8609,1.8609,1.8609,1.8609,1.8609,1.8824,1.8827,1.881,1.8805,1.8789,1.8782,1.8774,1.8762,1.8748,1.8738,1.8729,1.8711,1.8689,1.8674,1.8663,1.8655,1.8651,1.8666,1.8654,1.8606,1.8598,1.859,1.8588,1.8666,1.8666,1.8706,1.8706,1.8707]},{"header":{"parameterUnit":"m.s-1","parameterCategory":1,"la1":30.2991,"la2":30.254,"lo1":-89.0895,"lo2":-89.0444,"dy":0.0017,"dx":0.0017,"nx":28,"ny":28,"refTime":"2024-02-05T09:00:00:Z","depth":0,"parameterNumber":3,"parameterNumberName":"V-component_of_WINDS"},"data":[0,0,0,0,0,0,0,0,0,0,0,0,0,0,0,0,0,0,0,0,0,0,0,0,0,0,0,0,0,0,0,0,0,0,0,0,0,0,0,0,0,0,0,0,0,0,0,0,0,0,0,0,0,0,0,0,0,0,-7.1183,-7.1185,0,-7.1335,-7.1336,-7.1338,-7.1295,-7.1292,-7.1289,-7.1286,-7.1435,-7.1442,-7.1448,0,0,0,0,0,0,0,0,0,0,0,0,0,-7.0852,-7.0859,-7.1183,-7.1185,-7.1187,-7.1334,-7.1336,-7.1339,-7.1295,-7.1292,-7.1288,-7.1284,-7.1433,-7.1441,-7.1449,0,0,0,0,0,0,0,0,0,0,0,0,0,-7.0999,-7.0861,-7.1183,-7.1183,-7.1185,-7.1334,-7.1337,-7.1339,-7.1296,-7.1292,-7.1287,-7.1283,-7.143,-7.144,-7.145,-7.1606,0,0,-7.1481,-7.1486,0,0,0,0,0,0,0,0,-7.0991,-7.1011,-7.1181,-7.1184,-7.1186,-7.1291,-7.1274,-7.1428,-7.1297,-7.1254,-7.1286,-7.128,-7.139,-7.1404,-7.1442,-7.1613,-7.1619,-7.1482,-7.1489,-7.1493,-7.1496,0,0,0,0,0,0,0,-7.0981,-7.1004,-7.1243,-7.1184,-7.1187,-7.1175,-7.119,-7.1303,-7.1346,-7.1257,-7.1254,-7.1273,-7.1391,-7.1432,-7.1445,-7.1621,-7.1482,-7.1491,-7.1497,-7.1501,-7.1929,-7.1934,0,0,0,0,0,0,-7.097,-7.0996,-7.1238,-7.1247,-7.1075,-7.1184,-7.1202,-7.1262,-7.1345,-7.1353,-7.1277,-7.1271,-7.1417,-7.1433,-7.145,-7.164,-7.1493,-7.1502,-7.1508,-7.1924,-7.193,-7.1936,0,0,0,0,0,0,-7.0963,-7.0992,-7.1232,-7.1121,-7.1151,-7.1195,-7.1263,-7.1267,-7.1309,-7.136,-7.1367,-7.1312,-7.1414,-7.1436,-7.1568,-7.1644,-7.1507,-7.1516,-7.1918,-7.1926,-7.1933,-7.2019,0,0,0,0,0,0,-7.0953,-7.0989,-7.105,-7.1123,-7.1157,-7.1349,-7.1267,-7.1274,-7.1328,-7.1321,-7.1394,-7.1402,-7.1412,-7.1553,-7.1579,-7.1656,-7.1524,-7.1911,-7.1922,-7.1931,-7.201,-7.2029,-7.2045,0,0,0,0,0,-7.0942,-7.1067,-7.1054,-7.1083,-7.1234,-7.1354,-7.1373,-7.1384,-7.1334,-7.1395,-7.1428,-7.14,-7.1632,-7.1567,-7.1595,-7.1677,-7.1907,-7.1919,-7.193,-7.2002,-7.2025,-7.2045,0,0,0,0,0,0,-7.0999,-7.1076,-7.1062,-7.1215,-7.1279,-7.1346,-7.1423,-7.1408,-7.1485,-7.1475,-7.1483,-7.15,-7.1636,-7.1669,-7.1596,-7.1833,-7.1762,-7.178,-7.1807,-7.1829,-7.1847,-7.1836,-7.1533,0,0,0,0,0,-7.103,-7.1122,-7.1184,-7.1312,-7.1345,-7.1379,-7.1431,-7.1434,-7.15,-7.1526,-7.1568,-7.1631,-7.1718,-7.1775,-7.1858,-7.2014,-7.203,-7.2084,-7.2102,-7.2116,-7.2132,-7.2218,-7.2243,-7.1975,-7.1974,-7.1974,0,0,-7.1094,-7.1147,-7.1204,-7.1325,-7.1375,-7.1469,-7.1402,-7.1504,-7.1574,-7.154,-7.167,-7.1703,-7.1773,-7.1919,-7.1985,-7.1951,-7.2209,-7.2131,-7.2142,-7.215,-7.2233,-7.2258,-7.2281,-7.1982,-7.1981,-7.198,0,0,-7.1259,-7.1308,-7.1422,-7.1474,-7.1551,-7.1573,-7.16,-7.1671,-7.1693,-7.1823,-7.18,-7.1882,-7.2031,-7.2084,-7.2129,-7.2316,-7.2294,-7.2342,-7.2436,-7.252,-7.2541,-7.256,-7.2628,-7.2652,-7.2357,-7.2358,-7.2358,0,-7.1328,-7.1471,-7.1482,-7.1588,-7.1641,-7.1618,-7.1732,-7.1781,-7.188,-7.1918,-7.1878,-7.2067,-7.2112,-7.2271,-7.2317,-7.2354,-7.2385,-7.2334,-7.2537,-7.2556,-7.2574,-7.2639,-7.2664,-7.2363,-7.2363,-7.2362,-7.2362,0,-7.1553,-7.1653,-7.1735,-7.1835,-7.1898,-7.2007,-7.2033,-7.2095,-7.2093,-7.2119,-7.2251,-7.2306,-7.24,-7.2437,-7.2434,-7.2596,-7.2572,-7.2535,-7.2464,-7.2605,-7.2666,-7.2691,-7.2371,-7.2369,-7.2368,-7.2366,0,0,-7.1758,-7.1864,-7.1894,-7.194,-7.2024,-7.21,-7.2208,-7.2303,-7.2357,-7.2425,-7.2517,-7.2645,-7.2612,-7.2664,-7.2666,-7.274,-7.2887,-7.2694,-7.2696,-7.2729,-7.3069,-7.3097,-7.3126,-7.2872,-7.2877,-7.288,-7.3063,0,-7.1932,-7.2125,-7.2139,-7.2313,-7.2405,-7.2384,-7.2479,-7.254,-7.2567,-7.2648,-7.2676,-7.2768,-7.2717,-7.2749,-7.2821,-7.2854,-7.2955,-7.284,-7.2956,-7.296,-7.2941,-7.3158,-7.3188,-7.3358,-7.3087,-7.3091,-7.3094,0,-7.216,-7.224,-7.2424,-7.2497,-7.2536,-7.2621,-7.271,-7.2788,-7.2856,-7.287,-7.293,-7.2923,-7.3033,-7.2958,-7.3109,-7.3031,-7.3079,-7.3102,-7.3109,-7.3121,-7.3037,-7.3177,-7.3412,-7.3439,-7.3131,-7.3128,-7.3126,0,-7.2294,-7.2446,-7.2577,-7.2616,-7.2704,-7.2764,-7.2803,-7.2867,-7.2924,-7.3,-7.3037,-7.3124,-7.3172,-7.3239,-7.3256,-7.3199,-7.3408,-7.3333,-7.3423,-7.3423,-7.3469,-7.3466,-7.3717,-7.3497,-7.3497,-7.3496,-7.3496,0,-7.2488,-7.2601,-7.2639,-7.2719,-7.2846,-7.2859,-7.2984,-7.3018,-7.3076,-7.3162,-7.3148,-7.3228,-7.3244,-7.3328,-7.3341,-7.3466,-7.3487,-7.3501,-7.3504,-7.3504,-7.3502,-7.3536,-7.3525,-7.3503,-7.3502,-7.35,-7.3499,0,-7.2659,-7.2688,-7.2829,-7.2901,-7.2922,-7.3013,-7.3073,-7.315,-7.3176,-7.3285,-7.3311,-7.3351,-7.3449,-7.3472,-7.3587,-7.3596,-7.3744,-7.3734,-7.3722,-7.3721,-7.381,-7.3802,-7.4093,-7.4132,-7.3886,-7.3888,-7.389,0,-7.2781,-7.2869,-7.2951,-7.3009,-7.3051,-7.3144,-7.3202,-7.3218,-7.328,-7.3365,-7.3432,-7.3528,-7.3607,-7.3764,-7.3802,-7.389,-7.3883,-7.3979,-7.3896,-7.3894,-7.3887,-7.3882,-7.3891,-7.3995,-7.3998,-7.4,-7.4002,0,-7.2995,-7.3006,-7.3092,-7.3185,-7.3255,-7.3328,-7.3397,-7.3444,-7.347,-7.3539,-7.3641,-7.3702,-7.3821,-7.3918,-7.4007,-7.4044,-7.4028,-7.4027,-7.4053,-7.4055,-7.4045,-7.4053,-7.3766,-7.4021,-7.4019,-7.4017,-7.4016,-7.4016,-7.3147,-7.3225,-7.3296,-7.3392,-7.3447,-7.3512,-7.3589,-7.3625,-7.371,-7.3811,-7.3814,-7.3925,-7.3991,-7.411,-7.4153,-7.4239,-7.421,-7.4246,-7.4256,-7.4265,-7.4274,-7.4031,-7.4255,-7.4255,-7.4254,-7.4254,-7.4253,0,-7.3362,-7.3408,-7.3496,-7.3595,-7.3671,-7.3651,-7.3726,-7.3791,-7.389,-7.3954,-7.4032,-7.4149,-7.4243,-7.4289,-7.4381,-7.4441,-7.4436,-7.4465,-7.4462,-7.4471,-7.4295,-7.4264,-7.4468,-7.4468,-7.4468,-7.4468,-7.4468,-7.4468,-7.3484,-7.3615,-7.3634,-7.3792,-7.3835,-7.3946,-7.3991,-7.4051,-7.4103,-7.4235,-7.4314,-7.4344,-7.4402,-7.4498,-7.4583,-7.4594,-7.4629,-7.4663,-7.467,-7.4505,-7.4483,-7.4462,-7.4434,-7.467,-7.467,-7.4839,-7.4841,-7.4842]}]]